Skip Page Navigation
NASA JPL Caltech
NASA Logo - Jet Propulsion Laboratory + View the NASA Portal
+ Center for Near-Earth Object Studies
JPL Home Earth Solar System Stars & Galaxies Technology
JPL Solar System Dynamics
BODIES ORBITS EPHEMERIDES TOOLS PHYSICAL DATA DISCOVERY FAQ SITE MAP
IMPORTANT: The SSD Announcement email list is now available. Major changes are coming in the near future, including possible hostname and/or URL changes. To be notified of such changes, subscribe to this email list.

Please visit this page for more details.


JPL Small-Body Database Browser
Search: [ help ]  
347126 (2010 JF168)
Classification: Main-belt Asteroid          SPK-ID: 2347126
Ephemeris | Orbit Diagram | Orbital Elements | Mission Design | Physical Parameters | Discovery Circumstances | Close-Approach Data ]

[ show orbit diagram ]
Orbital Elements at Epoch 2459000.5 (2020-May-31.0) TDB
Reference: JPL 10 (heliocentric ecliptic J2000)
 Element Value Uncertainty (1-sigma)   Units 
e .1235496471356611 1.0558e-07  
a 3.064350605340231 4.6393e-08 au
q 2.685751169350497 3.2478e-07 au
i 17.24821286687698 8.3493e-06 deg
node 93.30336021896287 3.0342e-05 deg
peri 281.796073614135 4.4557e-05 deg
M 178.8662476904189 3.3694e-05 deg
tp 2458027.008862023908
(2017-Sep-30.50886202)
0.0001771 TDB
period 1959.32331670513
5.36
4.4495e-05
1.218e-07
d
yr
n .1837369039252741 4.1725e-09 deg/d
Q 3.442950041329967 5.2125e-08 au
  Orbit Determination Parameters
   # obs. used (total)      110  
   data-arc span      6231 days (17.06 yr)  
   first obs. used      2002-01-13  
   last obs. used      2019-02-04  
   planetary ephem.      DE431  
   SB-pert. ephem.      SB431-N16  
   condition code      0  
   norm. resid. RMS      .65243  
   source      ORB  
   producer      Otto Matic  
   solution date      2019-Jul-14 13:43:55  

Additional Information
 Earth MOID = 1.75396 au 
 Jupiter MOID = 2.12084 au 
 T_jup = 3.153 
[ show covariance matrix ]

Ephemeris | Orbit Diagram | Orbital Elements | Mission Design | Physical Parameters | Discovery Circumstances | Close-Approach Data ]

Physical Parameter Table
Parameter Symbol Value Units Sigma Reference Notes
absolute magnitude H 15.8   n/a MPO427780  
diameter diameter 4.299 km 0.781 urn:nasa:pds:neowise_diameters_albedos::2.0[mainbelt] (http://adsabs.harvard.edu/abs/2012ApJ...759L...8M)  
geometric albedo albedo 0.042   0.020 urn:nasa:pds:neowise_diameters_albedos::2.0[mainbelt] (http://adsabs.harvard.edu/abs/2012ApJ...759L...8M)  

347126 (2010 JF168)          Discovered 2010-May-12 by Spacewatch at Kitt Peak
Reference: 20121128/Numbers.arcLast Updated: 2012-12-03

[ show close-approach data ]
Alternate Designations
 2010 JF168 = 2002 AE206 = 2007 XU46 
Ephemeris | Orbit Diagram | Orbital Elements | Mission Design | Physical Parameters | Discovery Circumstances | Close-Approach Data ]
ABOUT SSD CREDITS/AWARDS PRIVACY/COPYRIGHT GLOSSARY LINKS
FirstGov 2020-Feb-24 00:27 UT
(server date/time)  
NASA Home Page
Site Manager:   Ryan S. Park
Webmaster  Alan B. Chamberlin